www.pogodaiklimat.ru

Погода и климат >> Архив погоды >> Португалия >> Funchal (S.Catarina)


ПОГОДА в Funchal (S.Catarina)

  • Прогноз погоды в Funchal (S.Catarina)
  • Монитор погоды в Funchal (S.Catarina)
  • Климат города

АРХИВ ПОГОДЫ в Funchal (S.Catarina)

Время (UTC), дата Ветер
(напр.,м/с)
 
Видим.   Явления Облачность Т
(С)
Тd
(С)
f
(%)
Тe
(С)
Тes
(С)
Комфортность P
(гПа)
Po
(гПа)
Тmin
(С)
Tmax
(С)
R
(мм)
R24
(мм)
S
(см)
06 14.05 СВ 11 20 км 9/9 450 м
[Cu Sc]
+16.2 +9.6 65 +14 +14 1022.7 1015.8 +15.9
09 14.05 СВ 12
{18}
18 км 9/9 480 м
[Cu Sc]
+17.2 +10.1 63 +15 +15 1022.9 1016.0
12 14.05 СВ 10-16
{17}
н/о н/о +18.7 +10.8 60 +18 +18 1023.6 1016.7
15 14.05 СВ 10-16
{18}
20 км 5/5 480 м
[Cu Sc]
+19.0 +12.0 64 +19 +19 1022.5 1015.6
18 14.05 С 9
{16}
20 км 5/5 480 м
[Cu Sc]
+18.5 +11.7 65 +18 +18 1022.1 1015.2 +19.3
21 14.05 СВ 10-15
{17}
20 км 8/8 450 м
[Cu Sc]
+16.7 +12.4 76 +15 +15 1022.7 1015.8
00 15.05 СВ 11
{17}
20 км 9/9 450 м
[Cu Sc]
+16.5 +12.8 79 +15 +15 1022.6 1015.6
03 15.05 СВ 10
{19}
20 км 9/9 450 м
[Cu Sc]
+16.1 +12.4 79 +14 +14 1020.8 1013.9
06 15.05 СВ 9 15 км 8/8 450 м
[Cu Sc]
+16.3 +11.8 75 +15 +15 1020.6 1013.7 +15.6 0.1
09 15.05 СВ 9-16
{16}
15 км 6/6 450 м
[Cu Sc Ac lent]
+16.7 +11.7 72 +15 +15 1021.6 1014.7
12 15.05 СВ 8-12
{17}
15 км 6/5 450 м
[Cu Sc Ac lent]
+18.0 +12.0 68 +17 +19 1021.7 1014.8
15 15.05 С 11-17
{20}
20 км 9/5 360 м
[Cu med, cong Ac lent Ci fib]
+18.2 +12.4 69 +17 +17 1020.3 1013.4
18 15.05 С 12
{19}
20 км 9/6 400 м
[Cu med, cong Ac lent Ci fib]
+17.5 +12.5 72 +16 +16 1018.8 1011.9 +19.4
21 15.05 СВ 11-17
{18}
15 км слабый ливневой дождь 9/8 400 м
[Cu Sc Ac lent Ci fib]
+16.1 +12.4 79 +14 +14 1020.1 1013.2
00 16.05 СВ 12-20
{20}
15 км в посл. час ливневой дождь {морось} 9/8 400 м
[Cu Sc Ac lent Ci fib]
+16.3 +11.9 75 +14 +14 1020.2 1013.3 0.7
03 16.05 СВ 10-16
{22}
18 км 6/6 420 м
[Cu Sc Ac lent]
+16.1 +11.2 73 +14 +14 1018.8 1011.9
06 16.05 СВ 10 20 км {ливн. осадки} н/о +16.5 +10.1 66 +15 +15 1018.2 1011.3 +15.3 2
09 16.05 СВ 9-18
{21}
20 км 6/6 480 м
[Cu Sc]
+17.0 +9.4 61 +16 +16 1018.1 1011.3
12 16.05 С 7-13
{18}
20 км {дождь} 6/6 450 м
[Cu Sc]
+17.2 +11.6 70 +16 +18 1019.1 1012.3
15 16.05 С 10-18
{18}
20 км 8/8 450 м
[Cu Sc]
+17.4 +11.0 66 +16 +16 1018.0 1011.1
18 16.05 С 8-13
{15}
20 км 8/8 450 м
[Cu Sc]
+17.2 +11.5 69 +16 +16 1018.1 1011.2 +19.0
21 16.05 СВ 7-14
{16}
15 км 8/8 450 м
[Cu Sc]
+16.2 +11.9 76 +15 +15 1019.1 1012.2
00 17.05 С 9-16
{18}
15 км слабый ливневой дождь 9/9 450 м
[Cu Sc]
+15.3 +12.0 81 +13 +13 1019.2 1012.2 1
03 17.05 С 13
{20}
н/о н/о +15.2 +12.3 83 +12 +12 1017.5 1010.5 0.4
06 17.05 СВ 11 15 км в посл. час дождь 8/8 450 м
[Cu Sc]
+14.8 +11.9 83 +12 +12 1017.5 1010.5 +14.8 0.1
09 17.05 С 7-12
{17}
15 км слабый дождь 8/8 400 м
[Cu Sc]
+15.5 +12.2 81 +14 +14 1018.3 1011.3 0.0
12 17.05 СВ 7-12
{12}
15 км слабая морось 9/9 400 м
[Cu Sc]
+15.9 +12.5 80 +14 +15 1019.1 1012.1 0.4
15 17.05 С 6-12
{13}
20 км 8/8 400 м
[Cu Sc]
+17.3 +12.2 72 +16 +18 1018.7 1011.8
18 17.05 СВ 8-13
{13}
20 км 8/8 450 м
[Cu Sc]
+15.8 +12.9 83 +14 +14 1018.3 1011.4 +19.0 0.4
21 17.05 С 8-13
{16}
20 км 8/8 450 м
[Cu Sc]
+16.3 +11.5 73 +15 +15 1019.1 1012.2
00 18.05 СВ 6-9
{12}
20 км 8/8 450 м
[Cu Sc]
+16.3 +10.8 70 +15 +15 1019.4 1012.5
03 18.05 СВ 7-12
{13}
15 км 9/9 450 м
[Cu Sc]
+16.1 +10.5 69 +15 +15 1018.4 1011.5
06 18.05 С 7 20 км 6/6 450 м
[Cu Sc]
+16.1 +9.5 65 +15 +15 1018.4 1011.5 +15.4
09 18.05 С 10-15
{15}
20 км 4/4 480 м
[Cu Sc]
+17.6 +10.3 62 +16 +16 1019.4 1012.5
12 18.05 С 7-10
{14}
20 км 5/5 480 м
[Cu Sc]
+19.0 +11.0 60 +19 +22 1020.4 1013.6
15 18.05 СВ 4-8
{10}
20 км 6/6 480 м
[Cu Sc]
+19.0 +11.6 62 +20 +25 1019.9 1013.0
18 18.05 СВ 5-10
{13}
20 км 6/6 480 м
[Cu Sc]
+17.9 +11.7 67 +18 +18 1019.5 1012.6 +19.6
21 18.05 СВ 4-9
{12}
20 км 6/6 450 м
[Cu Sc]
+17.2 +10.8 66 +17 +17 1020.0 1013.1
00 19.05 СВ 6-10
{13}
20 км 6/6 450 м
[Cu Sc]
+16.8 +9.9 64 +16 +16 1020.8 1013.9
03 19.05 С 5-11
{11}
20 км 6/6 480 м
[Cu Sc]
+16.7 +10.8 68 +16 +16 1019.9 1013.0
06 19.05 СВ 4 20 км 5/5 480 м
[Cu Sc]
+16.7 +8.8 60 +16 +16 1019.7 1012.8 +16.5
09 19.05 СВ 3-6
{11}
20 км 8/8 480 м
[Cu Sc]
+17.3 +11.0 66 +17 +18 1020.7 1013.8
12 19.05 С 7-11
{12}
20 км 8/8 480 м
[Cu Sc]
+18.0 +10.4 61 +17 +18 1020.8 1014.0
15 19.05 С 7-13
{13}
20 км 5/5 480 м
[Cu Sc]
+19.4 +10.5 56 +20 +22 1020.2 1013.4
18 19.05 С 6-12
{12}
20 км 6/6 450 м
[Cu Sc Ci fib]
+17.8 +11.4 66 +17 +18 1019.4 1012.5 +20.2
21 19.05 С 5-9
{9}
20 км 6/6 480 м
[Cu Sc]
+17.0 +10.4 65 +16 +16 1019.9 1013.0
00 20.05 С 3-6
{10}
20 км 5/5 480 м
[Cu Sc]
+16.8 +9.4 62 +17 +17 1020.4 1013.5
03 20.05 С 5-10
{11}
20 км 6/6 480 м
[Cu Sc]
+16.6 +9.7 64 +16 +16 1018.6 1011.7
06 20.05 С 4 20 км 8/8 480 м
[Cu Sc]
+16.5 +10.5 68 +16 +16 1018.4 1011.5 +16.5
09 20.05 С 5-8
{9}
20 км 6/6 480 м
[Cu Sc]
+17.6 +9.7 60 +17 +19 1018.9 1012.0
12 20.05 СВ 6-11
{14}
20 км 6/6 450 м
[Cu Sc]
+19.7 +11.0 57 +21 +24 комфорт 1018.9 1012.1
15 20.05 СВ 5-12
{12}
20 км 6/6 540 м
[Cu Sc]
+20.6 +10.2 51 +22 +26 комфорт 1017.6 1010.8
18 20.05 СВ 3-7
{12}
20 км 4/4 540 м
[Cu Sc]
+19.9 +9.4 51 +21 +23 комфорт 1017.3 1010.5 +21.6
21 20.05
{6}
20 км 4/4 540 м
[Cu Sc]
+17.8 +9.2 57 1017.8 1010.9
00 21.05 20 км 5/5 540 м
[Cu Sc]
+16.5 +10.1 66 1017.9 1011.0

 

Местоположение метеостанции Funchal (S.Catarina) (Португалия): широта 32.68 долгота -16.76 высота над уровнем моря 49 м.

В архиве по умолчанию представлена погода в Funchal (S.Catarina) за последнюю неделю. Архивные данные за месяц целиком и за предыдущие месяцы, начиная с января 2011 года, Вы можете получить, выбрав интересующий диапазон дат из раскрывающегося списка и нажав кнопку "Ввод!".


*Определитесь, кто Вы:
робот инопланетянин человек

Внимание! Время в таблицах - всемирное. Для получения местного времени необходимо прибавить поправку, которая в Funchal (S.Catarina) равна 0 ч.

Смотрите также архив погоды в соседних городах и на ближайших метеорологических станциях:

Погода в Funchal (Португалия) (14 км)
Погода в Porto Santo (Португалия) (58 км)
Погода в La Palma (Канарские Острова) (461 км)
Погода в Tenerife (Канарские Острова) (470 км)
Погода в Sta. Cruz De Tenerife (Канарские Острова) (473 км)
Погода в Tenerife-Guimar (Канарские Острова) (486 км)
Погода в Izana (Канарские Острова) (488 км)
Погода в Lanzarote (Канарские Острова) (513 км)
Погода в Reina Sofia Airport (Канарские Острова) (515 км)
Погода в La Gomera (Канарские Острова) (519 км)

Пояснения к столбцам:

Ветер - указаны скорость ветра в м/с - средняя за 10 мин, порывы в срок и между сроками (в фигурных скобках) и направление, откуда дует ветер: С - северный, СВ - северо-восточный, В - восточный, ЮВ - юго-восточный, Ю - южный, ЮЗ - юго-западный, З - западный, СЗ - северо-западный.
Видимость - горизонтальная дальность видимости в метрах или километрах. При видимости от 1 до 10 км при отсутствии осадков обычно наблюдается дымка, при ухудшении видимости до 1 км и менее - туман. В сухую погоду видимость может ухудшаться дымом, пылью или мглою.
Явления - указаны атмосферные явления, наблюдавшиеся в срок или в последний час перед сроком; фигурными скобками обозначены явления, наблюдавшиеся между сроками (за 1-3 часа до срока); квадратными скобками обозначены град или гололедные отложения с указанием их диаметра в мм.
Облачность - указаны через наклонную черту общая и нижняя облачность в баллах и высота нижней границы облаков в метрах; квадратными скобками обозначены формы облаков: Ci - перистые, Cs - перисто-слоистые, Cc - перисто-кучевые, Ac - высококучевые, As - высокослоистые, Sc - слоисто-кучевые, Ns - слоисто-дождевые, Cu - кучевые, Cb - кучево-дождевые. Подробнее классификацию облаков см. в Атласе облаков (PDF).
T - Температура воздуха - температура, измеренная на высоте 2 м над землей.
Td - Температура точки росы - температура, при понижении до которой содержащийся в воздухе водяной пар достигнет насыщения.
f - Относительная влажность воздуха - влажноcть воздуха, измеренная на высоте 2 м над землей.
Te - Эффективная температура - температура, которую ощущает одетый по сезону человек в тени. Характеристика душности погоды. При расчете учитывается влияние влажности воздуха и скорости ветра на теплоощущения человека.
Tes - Эффективная температура на солнце - температура, которую ощущает человек, с поправкой на солнечный нагрев. Характеристика знойности погоды. Зависит от высоты солнца над горизонтом, облачности и скорости ветра. Ночью, в пасмурную погоду, а также при ветре 12 м/с и более поправка равна нулю.
P - Атмосферное давление - приведенное к уровню моря атмосферное давление.
Po - Атмосферное давление - измеренное на уровне метеостанции атмосферное давление.
Tmin - Минимальная температура - минимум температуры воздуха на высоте 2 м над землей.
Tmax - Максимальная температура - максимум температуры воздуха на высоте 2 м над землей.
R - Количество осадков - Количество выпавших осадков за период времени, мм. При наведении курсора мыши на число - период времени, за который выпало указанное количество осадков.
R24 - Количество осадков - Количество выпавших осадков за 24 часа, мм.
S - Снежный покров - Высота снежного покрова, см. При наведении курсора мыши на число - состояние снежного покрова и степень покрытия местности в баллах.